Location: Ebendorf
(52.1827°N, 11.5706°E)
Time: 09:40:18
(UTC+00:00)

Cosmos 1459 Rocket - Pass Details

Date: 15 May 2021
Orbit: 936 x 1000 km, 83.0° (Epoch: 20 June)

Event Time Altitude Azimuth Distance (km) Brightness Sun altitude
Rises 23:58:59 0° 351° (N) 3,706 8.3 -18.2°
Reaches altitude 10° 00:01:34 10° 354° (N) 2,745 7.5 -18.1°
Maximum altitude 00:07:48 63° 76° (ENE) 1,080 4.3 -17.8°
Enters shadow 00:12:29 18° 154° (SSE) 2,179 5.4 -17.7°
